Year,Month,Day,Hour,Minute,Value (Times are PST for temperature in C)
2007,10,27,00,00,2.20
2007,10,27,00,01,2.20
2007,10,27,00,02,2.20
2007,10,27,00,03,2.20
2007,10,27,00,04,2.20
2007,10,27,00,05,2.20
2007,10,27,00,06,2.30
2007,10,27,00,07,2.20
2007,10,27,00,08,2.20
2007,10,27,00,09,2.20
2007,10,27,00,10,2.20
2007,10,27,00,11,2.20
2007,10,27,00,12,2.20
2007,10,27,00,13,2.20
2007,10,27,00,14,2.20
2007,10,27,00,15,2.20
2007,10,27,00,16,2.30
2007,10,27,00,17,2.30
2007,10,27,00,18,2.30
2007,10,27,00,19,2.40
2007,10,27,00,20,2.40
2007,10,27,00,21,2.40
2007,10,27,00,22,2.40
2007,10,27,00,23,2.50
2007,10,27,00,24,2.40
2007,10,27,00,25,2.40
2007,10,27,00,26,2.40
2007,10,27,00,27,2.40
2007,10,27,00,28,2.40
2007,10,27,00,29,2.40
2007,10,27,00,30,2.40
2007,10,27,00,31,2.30
2007,10,27,00,32,2.30
2007,10,27,00,33,2.30
2007,10,27,00,34,2.30
2007,10,27,00,35,2.30
2007,10,27,00,36,2.30
2007,10,27,00,37,2.30
2007,10,27,00,38,2.40
2007,10,27,00,39,2.40
2007,10,27,00,40,2.50
2007,10,27,00,41,2.60
2007,10,27,00,42,2.60
2007,10,27,00,43,2.60
2007,10,27,00,44,2.70
2007,10,27,00,45,2.70
2007,10,27,00,46,2.70
2007,10,27,00,47,2.70
2007,10,27,00,48,2.70
2007,10,27,00,49,2.70
2007,10,27,00,50,2.70
2007,10,27,00,51,2.70
2007,10,27,00,52,2.70
2007,10,27,00,53,2.70
2007,10,27,00,54,2.70
2007,10,27,00,55,2.70
2007,10,27,00,56,2.70
2007,10,27,00,57,2.70
2007,10,27,00,58,2.70
2007,10,27,00,59,2.70
2007,10,27,01,00,2.70
2007,10,27,01,01,2.70
2007,10,27,01,02,2.70
2007,10,27,01,03,2.70
2007,10,27,01,04,2.70
2007,10,27,01,05,2.70
2007,10,27,01,06,2.70
2007,10,27,01,07,2.70
2007,10,27,01,08,2.70
2007,10,27,01,09,2.60
2007,10,27,01,10,2.60
2007,10,27,01,11,2.60
2007,10,27,01,12,2.50
2007,10,27,01,13,2.50
2007,10,27,01,14,2.50
2007,10,27,01,15,2.40
2007,10,27,01,16,2.40
2007,10,27,01,17,2.40
2007,10,27,01,18,2.30
2007,10,27,01,19,2.30
2007,10,27,01,20,2.30
2007,10,27,01,21,2.30
2007,10,27,01,22,2.30
2007,10,27,01,23,2.40
2007,10,27,01,24,2.40
2007,10,27,01,25,2.40
2007,10,27,01,26,2.40
2007,10,27,01,27,2.40
2007,10,27,01,28,2.40
2007,10,27,01,29,2.40
2007,10,27,01,30,2.40
2007,10,27,01,31,2.40
2007,10,27,01,32,2.40
2007,10,27,01,33,2.40
2007,10,27,01,34,2.30
2007,10,27,01,35,2.30
2007,10,27,01,36,2.30
2007,10,27,01,37,2.30
2007,10,27,01,38,2.30
2007,10,27,01,39,2.30
2007,10,27,01,40,2.30
2007,10,27,01,41,2.30
2007,10,27,01,42,2.30
2007,10,27,01,43,2.30
2007,10,27,01,44,2.30
2007,10,27,01,45,2.30
2007,10,27,01,46,2.20
2007,10,27,01,47,2.20
2007,10,27,01,48,2.20
2007,10,27,01,49,2.20
2007,10,27,01,50,2.20
2007,10,27,01,51,2.10
2007,10,27,01,52,2.10
2007,10,27,01,53,2.10
2007,10,27,01,54,2.10
2007,10,27,01,55,2.10
2007,10,27,01,56,2.20
2007,10,27,01,57,2.20
2007,10,27,01,58,2.30
2007,10,27,01,59,2.40
2007,10,27,02,00,2.40
2007,10,27,02,01,2.50
2007,10,27,02,02,2.50
2007,10,27,02,03,2.60
2007,10,27,02,04,2.70
2007,10,27,02,05,2.70
2007,10,27,02,06,2.70
2007,10,27,02,07,2.70
2007,10,27,02,08,2.70
2007,10,27,02,09,2.70
2007,10,27,02,10,2.70
2007,10,27,02,11,2.70
2007,10,27,02,12,2.70
2007,10,27,02,13,2.70
2007,10,27,02,14,2.80
2007,10,27,02,15,2.80
2007,10,27,02,16,2.90
2007,10,27,02,17,2.90
2007,10,27,02,18,2.90
2007,10,27,02,19,2.90
2007,10,27,02,20,3.00
2007,10,27,02,21,3.10
2007,10,27,02,22,3.10
2007,10,27,02,23,3.00
2007,10,27,02,24,2.90
2007,10,27,02,25,2.90
2007,10,27,02,26,2.90
2007,10,27,02,27,2.90
2007,10,27,02,28,2.90
2007,10,27,02,29,2.90
2007,10,27,02,30,2.90
2007,10,27,02,31,2.90
2007,10,27,02,32,2.90
2007,10,27,02,33,2.90
2007,10,27,02,34,2.80
2007,10,27,02,35,2.80
2007,10,27,02,36,2.80
2007,10,27,02,37,2.70
2007,10,27,02,38,2.70
2007,10,27,02,39,2.70
2007,10,27,02,40,2.70
2007,10,27,02,41,2.70
2007,10,27,02,42,2.70
2007,10,27,02,43,2.70
2007,10,27,02,44,2.70
2007,10,27,02,45,2.60
2007,10,27,02,46,2.60
2007,10,27,02,47,2.50
2007,10,27,02,48,2.50
2007,10,27,02,49,2.40
2007,10,27,02,50,2.40
2007,10,27,02,51,2.30
2007,10,27,02,52,2.20
2007,10,27,02,53,2.20
2007,10,27,02,54,2.20
2007,10,27,02,55,2.20
2007,10,27,02,56,2.20
2007,10,27,02,57,2.20
2007,10,27,02,58,2.10
2007,10,27,02,59,2.10
2007,10,27,03,00,2.20
2007,10,27,03,01,2.20
2007,10,27,03,02,2.20
2007,10,27,03,03,2.20
2007,10,27,03,04,2.20
2007,10,27,03,05,2.20
2007,10,27,03,06,2.20
2007,10,27,03,07,2.20
2007,10,27,03,08,2.20
2007,10,27,03,09,2.20
2007,10,27,03,10,2.20
2007,10,27,03,11,2.20
2007,10,27,03,12,2.20
2007,10,27,03,13,2.20
2007,10,27,03,14,2.20
2007,10,27,03,15,2.20
2007,10,27,03,16,2.20
2007,10,27,03,17,2.20
2007,10,27,03,18,2.20
2007,10,27,03,19,2.20
2007,10,27,03,20,2.20
2007,10,27,03,21,2.20
2007,10,27,03,22,2.10
2007,10,27,03,23,2.10
2007,10,27,03,24,2.10
2007,10,27,03,25,2.10
2007,10,27,03,26,2.00
2007,10,27,03,27,2.00
2007,10,27,03,28,2.00
2007,10,27,03,29,2.00
2007,10,27,03,30,2.00
2007,10,27,03,31,2.00
2007,10,27,03,32,2.00
2007,10,27,03,33,2.00
2007,10,27,03,34,2.10
2007,10,27,03,35,2.10
2007,10,27,03,36,2.10
2007,10,27,03,37,2.10
2007,10,27,03,38,2.20
2007,10,27,03,39,2.20
2007,10,27,03,40,2.20
2007,10,27,03,41,2.20
2007,10,27,03,42,2.30
2007,10,27,03,43,2.30
2007,10,27,03,44,2.30
2007,10,27,03,45,2.30
2007,10,27,03,46,2.40
2007,10,27,03,47,2.40
2007,10,27,03,48,2.40
2007,10,27,03,49,2.40
2007,10,27,03,50,2.40
2007,10,27,03,51,2.40
2007,10,27,03,52,2.40
2007,10,27,03,53,2.50
2007,10,27,03,54,2.50
2007,10,27,03,55,2.50
2007,10,27,03,56,2.50
2007,10,27,03,57,2.50
2007,10,27,03,58,2.60
2007,10,27,03,59,2.60
2007,10,27,04,00,2.60
2007,10,27,04,01,2.60
2007,10,27,04,02,2.60
2007,10,27,04,03,2.60
2007,10,27,04,04,2.60
2007,10,27,04,05,2.60
2007,10,27,04,06,2.60
2007,10,27,04,07,2.50
2007,10,27,04,08,2.50
2007,10,27,04,09,2.50
2007,10,27,04,10,2.50
2007,10,27,04,11,2.50
2007,10,27,04,12,2.50
2007,10,27,04,13,2.40
2007,10,27,04,14,2.40
2007,10,27,04,15,2.40
2007,10,27,04,16,2.30
2007,10,27,04,17,2.30
2007,10,27,04,18,2.30
2007,10,27,04,19,2.20
2007,10,27,04,20,2.20
2007,10,27,04,21,2.20
2007,10,27,04,22,2.20
2007,10,27,04,23,2.20
2007,10,27,04,24,2.30
2007,10,27,04,25,2.30
2007,10,27,04,26,2.30
2007,10,27,04,27,2.30
2007,10,27,04,28,2.30
2007,10,27,04,29,2.30
2007,10,27,04,30,2.20
2007,10,27,04,31,2.20
2007,10,27,04,32,2.20
2007,10,27,04,33,2.30
2007,10,27,04,34,2.30
2007,10,27,04,35,2.30
2007,10,27,04,36,2.30
2007,10,27,04,37,2.40
2007,10,27,04,38,2.40
2007,10,27,04,39,2.50
2007,10,27,04,40,2.50
2007,10,27,04,41,2.50
2007,10,27,04,42,2.50
2007,10,27,04,43,2.50
2007,10,27,04,44,2.60
2007,10,27,04,45,2.60
2007,10,27,04,46,2.60
2007,10,27,04,47,2.60
2007,10,27,04,48,2.60
2007,10,27,04,49,2.60
2007,10,27,04,50,2.60
2007,10,27,04,51,2.60
2007,10,27,04,52,2.60
2007,10,27,04,53,2.60
2007,10,27,04,54,2.50
2007,10,27,04,55,2.50
2007,10,27,04,56,2.50
2007,10,27,04,57,2.50
2007,10,27,04,58,2.50
2007,10,27,04,59,2.50
2007,10,27,05,00,2.60
2007,10,27,05,01,2.60
2007,10,27,05,02,2.70
2007,10,27,05,03,2.70
2007,10,27,05,04,2.70
2007,10,27,05,05,2.70
2007,10,27,05,06,2.80
2007,10,27,05,07,2.80
2007,10,27,05,08,2.80
2007,10,27,05,09,2.80
2007,10,27,05,10,2.80
2007,10,27,05,11,2.70
2007,10,27,05,12,2.70
2007,10,27,05,13,2.70
2007,10,27,05,14,2.70
2007,10,27,05,15,2.70
2007,10,27,05,16,2.70
2007,10,27,05,17,2.70
2007,10,27,05,18,2.70
2007,10,27,05,19,2.70
2007,10,27,05,20,2.70
2007,10,27,05,21,2.70
2007,10,27,05,22,2.70
2007,10,27,05,23,2.70
2007,10,27,05,24,2.70
2007,10,27,05,25,2.70
2007,10,27,05,26,2.70
2007,10,27,05,27,2.70
2007,10,27,05,28,2.70
2007,10,27,05,29,2.70
2007,10,27,05,30,2.70
2007,10,27,05,31,2.70
2007,10,27,05,32,2.70
2007,10,27,05,33,2.70
2007,10,27,05,34,2.70
2007,10,27,05,35,2.70
2007,10,27,05,36,2.70
2007,10,27,05,37,2.70
2007,10,27,05,38,2.70
2007,10,27,05,39,2.70
2007,10,27,05,40,2.70
2007,10,27,05,41,2.70
2007,10,27,05,42,2.70
2007,10,27,05,43,2.60
2007,10,27,05,44,2.70
2007,10,27,05,45,2.70
2007,10,27,05,46,2.70
2007,10,27,05,47,2.70
2007,10,27,05,48,2.60
2007,10,27,05,49,2.60
2007,10,27,05,50,2.60
2007,10,27,05,51,2.60
2007,10,27,05,52,2.60
2007,10,27,05,53,2.50
2007,10,27,05,54,2.50
2007,10,27,05,55,2.50
2007,10,27,05,56,2.40
2007,10,27,05,57,2.40
2007,10,27,05,58,2.40
2007,10,27,05,59,2.50
2007,10,27,06,00,2.50
2007,10,27,06,01,2.50
2007,10,27,06,02,2.50
2007,10,27,06,03,2.50
2007,10,27,06,04,2.50
2007,10,27,06,05,2.50
2007,10,27,06,06,2.60
2007,10,27,06,07,2.60
2007,10,27,06,08,2.60
2007,10,27,06,09,2.60
2007,10,27,06,10,2.60
2007,10,27,06,11,2.60
2007,10,27,06,12,2.60
2007,10,27,06,13,2.60
2007,10,27,06,14,2.60
2007,10,27,06,15,2.60
2007,10,27,06,16,2.60
2007,10,27,06,17,2.60
2007,10,27,06,18,2.60
2007,10,27,06,19,2.50
2007,10,27,06,20,2.50
2007,10,27,06,21,2.50
2007,10,27,06,22,2.50
2007,10,27,06,23,2.50
2007,10,27,06,24,2.50
2007,10,27,06,25,2.50
2007,10,27,06,26,2.50
2007,10,27,06,27,2.50
2007,10,27,06,28,2.50
2007,10,27,06,29,2.50
2007,10,27,06,30,2.40
2007,10,27,06,31,2.40
2007,10,27,06,32,2.40
2007,10,27,06,33,2.30
2007,10,27,06,34,2.30
2007,10,27,06,35,2.30
2007,10,27,06,36,2.30
2007,10,27,06,37,2.30
2007,10,27,06,38,2.30
2007,10,27,06,39,2.30
2007,10,27,06,40,2.20
2007,10,27,06,41,2.20
2007,10,27,06,42,2.20
2007,10,27,06,43,2.20
2007,10,27,06,44,2.20
2007,10,27,06,45,2.30
2007,10,27,06,46,2.30
2007,10,27,06,47,2.20
2007,10,27,06,48,2.20
2007,10,27,06,49,2.20
2007,10,27,06,50,2.20
2007,10,27,06,51,2.20
2007,10,27,06,52,2.30
2007,10,27,06,53,2.30
2007,10,27,06,54,2.30
2007,10,27,06,55,2.30
2007,10,27,06,56,2.30
2007,10,27,06,57,2.30
2007,10,27,06,58,2.40
2007,10,27,06,59,2.40
2007,10,27,07,00,2.40
2007,10,27,07,01,2.50
2007,10,27,07,02,2.50
2007,10,27,07,03,2.50
2007,10,27,07,04,2.50
2007,10,27,07,05,2.50
2007,10,27,07,06,2.50
2007,10,27,07,07,2.50
2007,10,27,07,08,2.50
2007,10,27,07,09,2.50
2007,10,27,07,10,2.50
2007,10,27,07,11,2.50
2007,10,27,07,12,2.60
2007,10,27,07,13,2.60
2007,10,27,07,14,2.60
2007,10,27,07,15,2.60
2007,10,27,07,16,2.60
2007,10,27,07,17,2.60
2007,10,27,07,18,2.60
2007,10,27,07,19,2.60
2007,10,27,07,20,2.60
2007,10,27,07,21,2.60
2007,10,27,07,22,2.60
2007,10,27,07,23,2.60
2007,10,27,07,24,2.70
2007,10,27,07,25,2.70
2007,10,27,07,26,2.70
2007,10,27,07,27,2.70
2007,10,27,07,28,2.70
2007,10,27,07,29,2.70
2007,10,27,07,30,2.70
2007,10,27,07,31,2.70
2007,10,27,07,32,2.70
2007,10,27,07,33,2.80
2007,10,27,07,34,2.80
2007,10,27,07,35,2.80
2007,10,27,07,36,2.80
2007,10,27,07,37,2.80
2007,10,27,07,38,2.80
2007,10,27,07,39,2.80
2007,10,27,07,40,2.80
2007,10,27,07,41,2.70
2007,10,27,07,42,2.70
2007,10,27,07,43,2.70
2007,10,27,07,44,2.70
2007,10,27,07,45,2.70
2007,10,27,07,46,2.70
2007,10,27,07,47,2.70
2007,10,27,07,48,2.70
2007,10,27,07,49,2.70
2007,10,27,07,50,2.70
2007,10,27,07,51,2.70
2007,10,27,07,52,2.70
2007,10,27,07,53,2.70
2007,10,27,07,54,2.70
2007,10,27,07,55,2.70
2007,10,27,07,56,2.70
2007,10,27,07,57,2.70
2007,10,27,07,58,2.70
2007,10,27,07,59,2.70
2007,10,27,08,00,2.70
2007,10,27,08,01,2.60
2007,10,27,08,02,2.60
2007,10,27,08,03,2.60
2007,10,27,08,04,2.60
2007,10,27,08,05,2.70
2007,10,27,08,06,2.70
2007,10,27,08,07,2.60
2007,10,27,08,08,2.60
2007,10,27,08,09,2.60
2007,10,27,08,10,2.60
2007,10,27,08,11,2.60
2007,10,27,08,12,2.50
2007,10,27,08,13,2.50
2007,10,27,08,14,2.50
2007,10,27,08,15,2.50
2007,10,27,08,16,2.50
2007,10,27,08,17,2.50
2007,10,27,08,18,2.50
2007,10,27,08,19,2.50
2007,10,27,08,20,2.50
2007,10,27,08,21,2.50
2007,10,27,08,22,2.50
2007,10,27,08,23,2.50
2007,10,27,08,24,2.50
2007,10,27,08,25,2.50
2007,10,27,08,26,2.50
2007,10,27,08,27,2.50
2007,10,27,08,28,2.50
2007,10,27,08,29,2.50
2007,10,27,08,30,2.50
2007,10,27,08,31,2.50
2007,10,27,08,32,2.50
2007,10,27,08,33,2.50
2007,10,27,08,34,2.50
2007,10,27,08,35,2.50
2007,10,27,08,36,2.50
2007,10,27,08,37,2.60
2007,10,27,08,38,2.60
2007,10,27,08,39,2.60
2007,10,27,08,40,2.60
2007,10,27,08,41,2.50
2007,10,27,08,42,2.50
2007,10,27,08,43,2.60
2007,10,27,08,44,2.60
2007,10,27,08,45,2.60
2007,10,27,08,46,2.60
2007,10,27,08,47,2.60
2007,10,27,08,48,2.50
2007,10,27,08,49,2.50
2007,10,27,08,50,2.50
2007,10,27,08,51,2.60
2007,10,27,08,52,2.60
2007,10,27,08,53,2.70
2007,10,27,08,54,2.80
2007,10,27,08,55,2.90
2007,10,27,08,56,3.00
2007,10,27,08,57,3.10
2007,10,27,08,58,3.10
2007,10,27,08,59,3.10
2007,10,27,09,00,3.20
2007,10,27,09,01,3.20
2007,10,27,09,02,3.20
2007,10,27,09,03,3.20
2007,10,27,09,04,3.30
2007,10,27,09,05,3.30
2007,10,27,09,06,3.30
2007,10,27,09,07,3.30
2007,10,27,09,08,3.30
2007,10,27,09,09,3.30
2007,10,27,09,10,3.30
2007,10,27,09,11,3.30
2007,10,27,09,12,3.30
2007,10,27,09,13,3.40
2007,10,27,09,14,3.50
2007,10,27,09,15,3.60
2007,10,27,09,16,3.60
2007,10,27,09,17,3.70
2007,10,27,09,18,3.70
2007,10,27,09,19,3.80
2007,10,27,09,20,3.80
2007,10,27,09,21,3.80
2007,10,27,09,22,3.90
2007,10,27,09,23,4.00
2007,10,27,09,24,4.00
2007,10,27,09,25,4.10
2007,10,27,09,26,4.20
2007,10,27,09,27,4.30
2007,10,27,09,28,4.40
2007,10,27,09,29,4.40
2007,10,27,09,30,4.50
2007,10,27,09,31,4.60
2007,10,27,09,32,4.80
2007,10,27,09,33,4.90
2007,10,27,09,34,4.90
2007,10,27,09,35,5.00
2007,10,27,09,36,5.10
2007,10,27,09,37,5.20
2007,10,27,09,38,5.30
2007,10,27,09,39,5.30
2007,10,27,09,40,5.40
2007,10,27,09,41,5.40
2007,10,27,09,42,5.50
2007,10,27,09,43,5.50
2007,10,27,09,44,5.60
2007,10,27,09,45,5.70
2007,10,27,09,46,5.70
2007,10,27,09,47,5.70
2007,10,27,09,48,5.80
2007,10,27,09,49,5.90
2007,10,27,09,50,6.00
2007,10,27,09,51,6.00
2007,10,27,09,52,6.00
2007,10,27,09,53,6.00
2007,10,27,09,54,6.00
2007,10,27,09,55,6.00
2007,10,27,09,56,6.10
2007,10,27,09,57,6.10
2007,10,27,09,58,6.10
2007,10,27,09,59,6.20
2007,10,27,10,00,6.20
2007,10,27,10,01,6.20
2007,10,27,10,02,6.20
2007,10,27,10,03,6.20
2007,10,27,10,04,6.20
2007,10,27,10,05,6.20
2007,10,27,10,06,6.30
2007,10,27,10,07,6.40
2007,10,27,10,08,6.40
2007,10,27,10,09,6.40
2007,10,27,10,10,6.40
2007,10,27,10,11,6.40
2007,10,27,10,12,6.40
2007,10,27,10,13,6.40
2007,10,27,10,14,6.40
2007,10,27,10,15,6.40
2007,10,27,10,16,6.50
2007,10,27,10,17,6.60
2007,10,27,10,18,6.80
2007,10,27,10,19,6.90
2007,10,27,10,20,7.10
2007,10,27,10,21,7.30
2007,10,27,10,22,7.50
2007,10,27,10,23,7.60
2007,10,27,10,24,7.70
2007,10,27,10,25,7.80
2007,10,27,10,26,7.80
2007,10,27,10,27,7.90
2007,10,27,10,28,8.00
2007,10,27,10,29,8.10
2007,10,27,10,30,8.10
2007,10,27,10,31,8.00
2007,10,27,10,32,8.00
2007,10,27,10,33,8.00
2007,10,27,10,34,8.10
2007,10,27,10,35,8.20
2007,10,27,10,36,8.20
2007,10,27,10,37,8.20
2007,10,27,10,38,8.30
2007,10,27,10,39,8.40
2007,10,27,10,40,8.50
2007,10,27,10,41,8.50
2007,10,27,10,42,8.60
2007,10,27,10,43,8.70
2007,10,27,10,44,8.70
2007,10,27,10,45,8.70
2007,10,27,10,46,8.70
2007,10,27,10,47,8.70
2007,10,27,10,48,8.70
2007,10,27,10,49,8.70
2007,10,27,10,50,8.80
2007,10,27,10,51,8.80
2007,10,27,10,52,8.90
2007,10,27,10,53,8.90
2007,10,27,10,54,9.00
2007,10,27,10,55,9.00
2007,10,27,10,56,9.10
2007,10,27,10,57,9.20
2007,10,27,10,58,9.30
2007,10,27,10,59,9.40
2007,10,27,11,00,9.50
2007,10,27,11,01,9.50
2007,10,27,11,02,9.60
2007,10,27,11,03,9.70
2007,10,27,11,04,9.80
2007,10,27,11,05,9.90
2007,10,27,11,06,9.90
2007,10,27,11,07,9.90
2007,10,27,11,08,10.00
2007,10,27,11,09,10.10
2007,10,27,11,10,10.10
2007,10,27,11,11,10.20
2007,10,27,11,12,10.30
2007,10,27,11,13,10.30
2007,10,27,11,14,10.40
2007,10,27,11,15,10.60
2007,10,27,11,16,10.60
2007,10,27,11,17,10.60
2007,10,27,11,18,10.60
2007,10,27,11,19,10.60
2007,10,27,11,20,10.60
2007,10,27,11,21,10.60
2007,10,27,11,22,10.60
2007,10,27,11,23,10.70
2007,10,27,11,24,10.70
2007,10,27,11,25,10.80
2007,10,27,11,26,10.90
2007,10,27,11,27,11.10
2007,10,27,11,28,11.10
2007,10,27,11,29,11.20
2007,10,27,11,30,11.30
2007,10,27,11,31,11.30
2007,10,27,11,32,11.40
2007,10,27,11,33,11.40
2007,10,27,11,34,11.40
2007,10,27,11,35,11.40
2007,10,27,11,36,11.40
2007,10,27,11,37,11.50
2007,10,27,11,38,11.60
2007,10,27,11,39,11.60
2007,10,27,11,40,11.70
2007,10,27,11,41,11.70
2007,10,27,11,42,11.80
2007,10,27,11,43,11.80
2007,10,27,11,44,11.80
2007,10,27,11,45,11.80
2007,10,27,11,46,11.70
2007,10,27,11,47,11.70
2007,10,27,11,48,11.70
2007,10,27,11,49,11.60
2007,10,27,11,50,11.60
2007,10,27,11,51,11.60
2007,10,27,11,52,11.60
2007,10,27,11,53,11.60
2007,10,27,11,54,11.70
2007,10,27,11,55,11.70
2007,10,27,11,56,11.70
2007,10,27,11,57,11.80
2007,10,27,11,58,11.80
2007,10,27,11,59,11.80
2007,10,27,12,00,11.80
2007,10,27,12,01,11.80
2007,10,27,12,02,11.80
2007,10,27,12,03,11.90
2007,10,27,12,04,11.90
2007,10,27,12,05,12.00
2007,10,27,12,06,12.00
2007,10,27,12,07,12.10
2007,10,27,12,08,12.10
2007,10,27,12,09,12.20
2007,10,27,12,10,12.20
2007,10,27,12,11,12.20
2007,10,27,12,12,12.20
2007,10,27,12,13,12.20
2007,10,27,12,14,12.20
2007,10,27,12,15,12.20
2007,10,27,12,16,12.10
2007,10,27,12,17,12.10
2007,10,27,12,18,12.10
2007,10,27,12,19,12.00
2007,10,27,12,20,12.00
2007,10,27,12,21,12.00
2007,10,27,12,22,11.90
2007,10,27,12,23,11.90
2007,10,27,12,24,11.90
2007,10,27,12,25,11.90
2007,10,27,12,26,12.00
2007,10,27,12,27,12.00
2007,10,27,12,28,12.00
2007,10,27,12,29,12.00
2007,10,27,12,30,12.10
2007,10,27,12,31,12.10
2007,10,27,12,32,12.00
2007,10,27,12,33,12.00
2007,10,27,12,34,12.00
2007,10,27,12,35,12.10
2007,10,27,12,36,12.00
2007,10,27,12,37,12.00
2007,10,27,12,38,12.00
2007,10,27,12,39,12.10
2007,10,27,12,40,12.20
2007,10,27,12,41,12.20
2007,10,27,12,42,12.30
2007,10,27,12,43,12.30
2007,10,27,12,44,12.30
2007,10,27,12,45,12.40
2007,10,27,12,46,12.50
2007,10,27,12,47,12.40
2007,10,27,12,48,12.40
2007,10,27,12,49,12.30
2007,10,27,12,50,12.30
2007,10,27,12,51,12.30
2007,10,27,12,52,12.30
2007,10,27,12,53,12.30
2007,10,27,12,54,12.30
2007,10,27,12,55,12.40
2007,10,27,12,56,12.50
2007,10,27,12,57,12.50
2007,10,27,12,58,12.60
2007,10,27,12,59,12.60
2007,10,27,13,00,12.70
2007,10,27,13,01,12.80
2007,10,27,13,02,12.80
2007,10,27,13,03,12.80
2007,10,27,13,04,12.90
2007,10,27,13,05,12.80
2007,10,27,13,06,12.80
2007,10,27,13,07,12.80
2007,10,27,13,08,12.90
2007,10,27,13,09,12.90
2007,10,27,13,10,12.90
2007,10,27,13,11,12.90
2007,10,27,13,12,12.90
2007,10,27,13,13,12.90
2007,10,27,13,14,12.90
2007,10,27,13,15,12.90
2007,10,27,13,16,12.80
2007,10,27,13,17,12.70
2007,10,27,13,18,12.70
2007,10,27,13,19,12.70
2007,10,27,13,20,12.60
2007,10,27,13,21,12.50
2007,10,27,13,22,12.60
2007,10,27,13,23,12.60
2007,10,27,13,24,12.70
2007,10,27,13,25,12.70
2007,10,27,13,26,12.80
2007,10,27,13,27,12.80
2007,10,27,13,28,12.90
2007,10,27,13,29,13.00
2007,10,27,13,30,13.00
2007,10,27,13,31,13.00
2007,10,27,13,32,13.10
2007,10,27,13,33,13.10
2007,10,27,13,34,13.20
2007,10,27,13,35,13.20
2007,10,27,13,36,13.30
2007,10,27,13,37,13.30
2007,10,27,13,38,13.30
2007,10,27,13,39,13.30
2007,10,27,13,40,13.30
2007,10,27,13,41,13.30
2007,10,27,13,42,13.30
2007,10,27,13,43,13.30
2007,10,27,13,44,13.30
2007,10,27,13,45,13.30
2007,10,27,13,46,13.30
2007,10,27,13,47,13.30
2007,10,27,13,48,13.30
2007,10,27,13,49,13.20
2007,10,27,13,50,13.10
2007,10,27,13,51,13.10
2007,10,27,13,52,13.10
2007,10,27,13,53,13.10
2007,10,27,13,54,13.00
2007,10,27,13,55,13.00
2007,10,27,13,56,12.80
2007,10,27,13,57,12.80
2007,10,27,13,58,12.70
2007,10,27,13,59,12.50
2007,10,27,14,00,12.40
2007,10,27,14,01,12.40
2007,10,27,14,02,12.30
2007,10,27,14,03,12.30
2007,10,27,14,04,12.30
2007,10,27,14,05,12.30
2007,10,27,14,06,12.30
2007,10,27,14,07,12.30
2007,10,27,14,08,12.20
2007,10,27,14,09,12.20
2007,10,27,14,10,12.20
2007,10,27,14,11,12.20
2007,10,27,14,12,12.10
2007,10,27,14,13,12.10
2007,10,27,14,14,12.10
2007,10,27,14,15,12.10
2007,10,27,14,16,12.10
2007,10,27,14,17,12.10
2007,10,27,14,18,12.20
2007,10,27,14,19,12.20
2007,10,27,14,20,12.20
2007,10,27,14,21,12.20
2007,10,27,14,22,12.10
2007,10,27,14,23,12.10
2007,10,27,14,24,12.00
2007,10,27,14,25,12.00
2007,10,27,14,26,11.90
2007,10,27,14,27,11.90
2007,10,27,14,28,11.80
2007,10,27,14,29,11.80
2007,10,27,14,30,11.80
2007,10,27,14,31,11.80
2007,10,27,14,32,11.80
2007,10,27,14,33,11.80
2007,10,27,14,34,11.80
2007,10,27,14,35,11.80
2007,10,27,14,36,11.80
2007,10,27,14,37,11.80
2007,10,27,14,38,11.80
2007,10,27,14,39,11.70
2007,10,27,14,40,11.70
2007,10,27,14,41,11.70
2007,10,27,14,42,11.70
2007,10,27,14,43,11.70
2007,10,27,14,44,11.70
2007,10,27,14,45,11.70
2007,10,27,14,46,11.70
2007,10,27,14,47,11.70
2007,10,27,14,48,11.70
2007,10,27,14,49,11.80
2007,10,27,14,50,11.80
2007,10,27,14,51,11.80
2007,10,27,14,52,11.80
2007,10,27,14,53,11.80
2007,10,27,14,54,11.80
2007,10,27,14,55,11.80
2007,10,27,14,56,11.80
2007,10,27,14,57,11.80
2007,10,27,14,58,11.80
2007,10,27,14,59,11.70
2007,10,27,15,00,11.70
2007,10,27,15,01,11.70
2007,10,27,15,02,11.60
2007,10,27,15,03,11.60
2007,10,27,15,04,11.60
2007,10,27,15,05,11.60
2007,10,27,15,06,11.60
2007,10,27,15,07,11.60
2007,10,27,15,08,11.60
2007,10,27,15,09,11.60
2007,10,27,15,10,11.50
2007,10,27,15,11,11.40
2007,10,27,15,12,11.40
2007,10,27,15,13,11.40
2007,10,27,15,14,11.40
2007,10,27,15,15,11.40
2007,10,27,15,16,11.30
2007,10,27,15,17,11.20
2007,10,27,15,18,11.20
2007,10,27,15,19,11.20
2007,10,27,15,20,11.20
2007,10,27,15,21,11.20
2007,10,27,15,22,11.20
2007,10,27,15,23,11.20
2007,10,27,15,24,11.20
2007,10,27,15,25,11.10
2007,10,27,15,26,11.10
2007,10,27,15,27,11.10
2007,10,27,15,28,11.10
2007,10,27,15,29,11.10
2007,10,27,15,30,11.10
2007,10,27,15,31,10.90
2007,10,27,15,32,10.90
2007,10,27,15,33,10.90
2007,10,27,15,34,11.00
2007,10,27,15,35,11.10
2007,10,27,15,36,11.10
2007,10,27,15,37,11.10
2007,10,27,15,38,11.10
2007,10,27,15,39,11.10
2007,10,27,15,40,11.00
2007,10,27,15,41,10.90
2007,10,27,15,42,10.90
2007,10,27,15,43,10.90
2007,10,27,15,44,10.90
2007,10,27,15,45,10.90
2007,10,27,15,46,10.90
2007,10,27,15,47,10.90
2007,10,27,15,48,10.90
2007,10,27,15,49,10.90
2007,10,27,15,50,10.90
2007,10,27,15,51,10.90
2007,10,27,15,52,10.90
2007,10,27,15,53,10.90
2007,10,27,15,54,10.90
2007,10,27,15,55,10.90
2007,10,27,15,56,10.90
2007,10,27,15,57,10.90
2007,10,27,15,58,10.90
2007,10,27,15,59,10.90
2007,10,27,16,00,10.90
2007,10,27,16,01,10.90
2007,10,27,16,02,10.90
2007,10,27,16,03,10.90
2007,10,27,16,04,10.90
2007,10,27,16,05,10.90
2007,10,27,16,06,10.90
2007,10,27,16,07,10.90
2007,10,27,16,08,10.90
2007,10,27,16,09,10.90
2007,10,27,16,10,10.90
2007,10,27,16,11,10.90
2007,10,27,16,12,11.10
2007,10,27,16,13,11.10
2007,10,27,16,14,11.10
2007,10,27,16,15,11.10
2007,10,27,16,16,11.10
2007,10,27,16,17,11.10
2007,10,27,16,18,11.10
2007,10,27,16,19,11.10
2007,10,27,16,20,11.10
2007,10,27,16,21,11.10
2007,10,27,16,22,10.90
2007,10,27,16,23,10.90
2007,10,27,16,24,10.90
2007,10,27,16,25,10.90
2007,10,27,16,26,10.90
2007,10,27,16,27,10.90
2007,10,27,16,28,10.80
2007,10,27,16,29,10.80
2007,10,27,16,30,10.70
2007,10,27,16,31,10.70
2007,10,27,16,32,10.70
2007,10,27,16,33,10.70
2007,10,27,16,34,10.70
2007,10,27,16,35,10.70
2007,10,27,16,36,10.60
2007,10,27,16,37,10.60
2007,10,27,16,38,10.60
2007,10,27,16,39,10.60
2007,10,27,16,40,10.60
2007,10,27,16,41,10.60
2007,10,27,16,42,10.60
2007,10,27,16,43,10.60
2007,10,27,16,44,10.60
2007,10,27,16,45,10.60
2007,10,27,16,46,10.60
2007,10,27,16,47,10.60
2007,10,27,16,48,10.60
2007,10,27,16,49,10.60
2007,10,27,16,50,10.60
2007,10,27,16,51,10.50
2007,10,27,16,52,10.40
2007,10,27,16,53,10.40
2007,10,27,16,54,10.40
2007,10,27,16,55,10.40
2007,10,27,16,56,10.40
2007,10,27,16,57,10.40
2007,10,27,16,58,10.40
2007,10,27,16,59,10.40
2007,10,27,17,00,10.40
2007,10,27,17,01,10.40
2007,10,27,17,02,10.40
2007,10,27,17,03,10.40
2007,10,27,17,04,10.30
2007,10,27,17,05,10.30
2007,10,27,17,06,10.30
2007,10,27,17,07,10.30
2007,10,27,17,08,10.30
2007,10,27,17,09,10.30
2007,10,27,17,10,10.30
2007,10,27,17,11,10.30
2007,10,27,17,12,10.30
2007,10,27,17,13,10.30
2007,10,27,17,14,10.30
2007,10,27,17,15,10.20
2007,10,27,17,16,10.20
2007,10,27,17,17,10.10
2007,10,27,17,18,10.10
2007,10,27,17,19,10.10
2007,10,27,17,20,10.10
2007,10,27,17,21,10.10
2007,10,27,17,22,10.00
2007,10,27,17,23,9.90
2007,10,27,17,24,9.90
2007,10,27,17,25,9.90
2007,10,27,17,26,9.90
2007,10,27,17,27,9.90
2007,10,27,17,28,9.90
2007,10,27,17,29,9.80
2007,10,27,17,30,9.80
2007,10,27,17,31,9.80
2007,10,27,17,32,9.80
2007,10,27,17,33,9.70
2007,10,27,17,34,9.70
2007,10,27,17,35,9.70
2007,10,27,17,36,9.70
2007,10,27,17,37,9.60
2007,10,27,17,38,9.60
2007,10,27,17,39,9.50
2007,10,27,17,40,9.50
2007,10,27,17,41,9.50
2007,10,27,17,42,9.40
2007,10,27,17,43,9.40
2007,10,27,17,44,9.30
2007,10,27,17,45,9.30
2007,10,27,17,46,9.20
2007,10,27,17,47,9.20
2007,10,27,17,48,9.10
2007,10,27,17,49,9.00